This is the latest recevied weather packets stored in our database for station/object K0SDS. If no packets are shown the sender has not sent any weather packets the latest 10 day(s).
| Time | Temp. | Humidity | Pressure | Rain* | Wind** | Luminosity | Snow |
|---|---|---|---|---|---|---|---|
| 1777865331 | 20.56° C | 52% | 1006.9 hPa | 0 mm | - | 0 W/m² | - |
| 1777865028 | 20.56° C | 52% | 1006.9 hPa | 0 mm | - | 0 W/m² | - |
| 1777864724 | 20.56° C | 52% | 1006.6 hPa | 0 mm | - | 0 W/m² | - |
| 1777864422 | 20.56° C | 52% | 1007 hPa | 0 mm | - | 0 W/m² | - |
| 1777864118 | 20.56° C | 52% | 1006.7 hPa | 0 mm | - | 0 W/m² | - |
| 1777863816 | 20.56° C | 52% | 1006.8 hPa | 0 mm | - | 0 W/m² | - |
| 1777863512 | 20° C | 53% | 1006.7 hPa | 0 mm | - | 0 W/m² | - |
| 1777863209 | 20° C | 54% | 1006.7 hPa | 0 mm | - | 0 W/m² | - |
| 1777862905 | 20° C | 57% | 1006.6 hPa | 0 mm | - | 0 W/m² | - |
| 1777862602 | 20.56° C | 55% | 1006.7 hPa | 0 mm | - | 0 W/m² | - |
| 1777862299 | 20° C | 54% | 1006.7 hPa | 0 mm | - | 0 W/m² | - |
| 1777861995 | 20° C | 55% | 1006.7 hPa | 0 mm | - | 0 W/m² | - |
| 1777861691 | 20° C | 55% | 1006.7 hPa | 0 mm | - | 0 W/m² | - |
| 1777861388 | 20° C | 56% | 1006.7 hPa | 0 mm | - | 0 W/m² | - |
| 1777861084 | 20.56° C | 55% | 1006.9 hPa | 0 mm | - | 0 W/m² | - |
| 1777860782 | 20° C | 55% | 1006.9 hPa | 0 mm | - | 0 W/m² | - |
| 1777860479 | 20° C | 56% | 1006.9 hPa | 0 mm | - | 0 W/m² | - |
| 1777860175 | 20.56° C | 54% | 1006.8 hPa | 0 mm | - | 0 W/m² | - |
| 1777859871 | 20.56° C | 55% | 1006.8 hPa | 0 mm | - | 0 W/m² | - |
| 1777859568 | 21.11° C | 54% | 1006.7 hPa | 0 mm | - | 0 W/m² | - |
| 1777859264 | 21.11° C | 51% | 1006.5 hPa | 0 mm | - | 0 W/m² | - |
| 1777858960 | 21.11° C | 53% | 1006.7 hPa | 0 mm | - | 0 W/m² | - |
| 1777858658 | 21.11° C | 52% | 1006.5 hPa | 0 mm | - | 0 W/m² | - |
| 1777858356 | 21.11° C | 52% | 1006.5 hPa | 0 mm | - | 0 W/m² | - |
| 1777858052 | 21.67° C | 53% | 1006.6 hPa | 0 mm | - | 0 W/m² | - |
* Rain latest hour (hover to see other rain measurements)
** Current wind speed in m/s (hover to see current wind gust speed)